Time,TemperatureF,DewpointF,PressureIn,WindDirection,WindDirectionDegrees,WindSpeedMPH,WindSpeedGustMPH,Humidity,HourlyPrecipIn,Conditions,Clouds,dailyrainin,SoftwareType,DateUTC
2013-08-29 00:01:00,68.4,67.0,29.84,North,8,0.0,1.0,94,0.00,,,0.00,weatherlink.com 1.10,2013-08-29 04:01:00,
2013-08-29 00:16:00,68.7,67.0,29.84,NNE,16,0.0,3.0,95,0.00,,,0.00,weatherlink.com 1.10,2013-08-29 04:16:00,
2013-08-29 00:31:00,68.9,68.0,29.84,North,2,0.0,1.0,95,0.00,,,0.00,weatherlink.com 1.10,2013-08-29 04:31:00,
2013-08-29 00:46:00,68.9,68.0,29.84,North,2,0.0,0.0,95,0.00,,,0.00,weatherlink.com 1.10,2013-08-29 04:46:00,
2013-08-29 01:01:00,68.5,67.0,29.84,North,2,0.0,0.0,94,0.00,,,0.00,weatherlink.com 1.10,2013-08-29 05:01:00,
2013-08-29 01:16:00,68.3,67.0,29.84,North,2,0.0,0.0,94,0.00,,,0.00,weatherlink.com 1.10,2013-08-29 05:16:00,
2013-08-29 01:31:00,67.9,66.0,29.83,North,2,0.0,1.0,94,0.00,,,0.00,weatherlink.com 1.10,2013-08-29 05:31:00,
2013-08-29 01:46:00,68.8,67.0,29.84,NE,39,1.0,3.0,95,0.00,,,0.00,weatherlink.com 1.10,2013-08-29 05:46:00,
2013-08-29 02:01:00,69.5,68.0,29.84,NNE,25,0.0,3.0,96,0.00,,,0.00,weatherlink.com 1.10,2013-08-29 06:01:00,
2013-08-29 02:16:00,68.7,67.0,29.84,NNE,24,0.0,0.0,95,0.00,,,0.00,weatherlink.com 1.10,2013-08-29 06:16:00,
2013-08-29 02:31:00,69.4,68.0,29.84,NNE,24,1.0,2.0,95,0.00,,,0.00,weatherlink.com 1.10,2013-08-29 06:31:00,
2013-08-29 02:46:00,69.9,69.0,29.84,NE,46,2.0,5.0,96,0.00,,,0.00,weatherlink.com 1.10,2013-08-29 06:46:00,
2013-08-29 03:01:00,70.1,69.0,29.84,NE,45,1.0,4.0,96,0.00,,,0.00,weatherlink.com 1.10,2013-08-29 07:01:00,
2013-08-29 03:16:00,70.5,69.0,29.84,NNE,33,3.0,4.0,96,0.00,,,0.00,weatherlink.com 1.10,2013-08-29 07:16:00,
2013-08-29 03:31:00,70.7,70.0,29.84,NE,49,4.0,7.0,96,0.00,,,0.00,weatherlink.com 1.10,2013-08-29 07:31:00,
2013-08-29 03:46:00,70.9,70.0,29.85,NE,40,4.0,9.0,95,0.00,,,0.00,weatherlink.com 1.10,2013-08-29 07:46:00,
2013-08-29 04:02:00,70.7,69.0,29.84,NE,47,5.0,7.0,95,0.00,,,0.00,weatherlink.com 1.10,2013-08-29 08:02:00,
2013-08-29 04:17:00,70.6,69.0,29.85,NE,51,3.0,6.0,94,0.00,,,0.00,weatherlink.com 1.10,2013-08-29 08:17:00,
2013-08-29 04:32:00,70.5,69.0,29.85,NE,49,3.0,6.0,94,0.00,,,0.00,weatherlink.com 1.10,2013-08-29 08:32:00,
2013-08-29 04:47:00,70.3,68.0,29.86,NE,35,4.0,7.0,93,0.00,,,0.00,weatherlink.com 1.10,2013-08-29 08:47:00,
2013-08-29 05:02:00,70.3,68.0,29.86,NE,52,4.0,9.0,93,0.00,,,0.00,weatherlink.com 1.10,2013-08-29 09:02:00,
2013-08-29 05:17:00,70.5,68.0,29.87,NE,49,3.0,10.0,93,0.00,,,0.00,weatherlink.com 1.10,2013-08-29 09:17:00,
2013-08-29 05:32:00,70.4,68.0,29.87,NE,46,3.0,8.0,93,0.00,,,0.00,weatherlink.com 1.10,2013-08-29 09:32:00,
2013-08-29 05:47:00,70.3,68.0,29.87,NE,44,2.0,5.0,93,0.00,,,0.00,weatherlink.com 1.10,2013-08-29 09:47:00,
2013-08-29 06:02:00,70.4,68.0,29.88,ENE,62,3.0,6.0,93,0.00,,,0.00,weatherlink.com 1.10,2013-08-29 10:02:00,
2013-08-29 06:17:00,70.5,68.0,29.88,NE,56,1.0,6.0,93,0.00,,,0.00,weatherlink.com 1.10,2013-08-29 10:17:00,
2013-08-29 06:32:00,70.4,68.0,29.89,ENE,73,2.0,6.0,93,0.00,,,0.00,weatherlink.com 1.10,2013-08-29 10:32:00,
2013-08-29 06:47:00,70.3,68.0,29.89,NE,44,2.0,7.0,93,0.00,,,0.00,weatherlink.com 1.10,2013-08-29 10:47:00,
2013-08-29 07:02:00,70.2,68.0,29.89,NNE,23,3.0,4.0,93,0.00,,,0.00,weatherlink.com 1.10,2013-08-29 11:02:00,
2013-08-29 07:17:00,70.2,68.0,29.90,NE,52,1.0,4.0,93,0.00,,,0.00,weatherlink.com 1.10,2013-08-29 11:17:00,
2013-08-29 07:32:00,70.5,68.0,29.91,North,351,1.0,4.0,93,0.00,,,0.00,weatherlink.com 1.10,2013-08-29 11:32:00,
2013-08-29 07:47:00,70.9,69.0,29.91,NNE,20,3.0,4.0,93,0.00,,,0.00,weatherlink.com 1.10,2013-08-29 11:47:00,
2013-08-29 08:02:00,71.7,70.0,29.91,East,79,4.0,6.0,93,0.00,,,0.00,weatherlink.com 1.10,2013-08-29 12:02:00,
2013-08-29 08:17:00,71.8,70.0,29.92,ENE,58,2.0,6.0,93,0.00,,,0.00,weatherlink.com 1.10,2013-08-29 12:17:00,
2013-08-29 08:32:00,72.3,70.0,29.91,NE,50,5.0,6.0,93,0.00,,,0.00,weatherlink.com 1.10,2013-08-29 12:32:00,
2013-08-29 08:47:00,73.3,71.0,29.92,ENE,58,3.0,7.0,92,0.00,,,0.00,weatherlink.com 1.10,2013-08-29 12:47:00,
2013-08-29 09:02:00,73.8,71.0,29.92,ENE,62,3.0,9.0,92,0.00,,,0.00,weatherlink.com 1.10,2013-08-29 13:02:00,
2013-08-29 09:17:00,73.5,71.0,29.93,NE,54,3.0,9.0,92,0.00,,,0.00,weatherlink.com 1.10,2013-08-29 13:17:00,
2013-08-29 09:32:00,73.7,71.0,29.93,ENE,58,6.0,8.0,92,0.00,,,0.00,weatherlink.com 1.10,2013-08-29 13:32:00,
2013-08-29 09:47:00,73.5,71.0,29.94,ENE,65,6.0,10.0,92,0.00,,,0.00,weatherlink.com 1.10,2013-08-29 13:47:00,
2013-08-29 10:02:00,73.3,71.0,29.95,NE,55,4.0,9.0,92,0.00,,,0.00,weatherlink.com 1.10,2013-08-29 14:02:00,
2013-08-29 10:17:00,73.1,70.0,29.95,NE,51,4.0,11.0,91,0.00,,,0.00,weatherlink.com 1.10,2013-08-29 14:17:00,
2013-08-29 10:32:00,72.8,70.0,29.95,NE,45,6.0,13.0,91,0.00,,,0.00,weatherlink.com 1.10,2013-08-29 14:32:00,
2013-08-29 10:47:00,73.7,70.0,29.95,ENE,57,11.0,12.0,88,0.00,,,0.00,weatherlink.com 1.10,2013-08-29 14:47:00,
2013-08-29 11:02:00,73.1,69.0,29.96,ENE,76,6.0,14.0,88,0.00,,,0.00,weatherlink.com 1.10,2013-08-29 15:02:00,
2013-08-29 11:17:00,72.6,69.0,29.97,ENE,60,7.0,12.0,89,0.00,,,0.00,weatherlink.com 1.10,2013-08-29 15:17:00,
2013-08-29 11:32:00,71.5,68.0,29.97,NE,56,3.0,12.0,89,0.00,,,0.00,weatherlink.com 1.10,2013-08-29 15:32:00,
2013-08-29 11:47:00,72.7,69.0,29.97,NE,40,6.0,8.0,87,0.00,,,0.00,weatherlink.com 1.10,2013-08-29 15:47:00,
2013-08-29 12:03:00,73.5,69.0,29.97,NE,36,6.0,9.0,85,0.00,,,0.00,weatherlink.com 1.10,2013-08-29 16:03:00,
2013-08-29 12:18:00,75.1,70.0,29.97,NE,44,5.0,12.0,84,0.00,,,0.00,weatherlink.com 1.10,2013-08-29 16:18:00,
2013-08-29 12:33:00,75.0,70.0,29.97,ENE,58,5.0,9.0,83,0.00,,,0.00,weatherlink.com 1.10,2013-08-29 16:33:00,
2013-08-29 12:48:00,75.9,69.0,29.97,NNE,24,10.0,10.0,78,0.00,,,0.00,weatherlink.com 1.10,2013-08-29 16:48:00,
2013-08-29 13:03:00,75.8,70.0,29.97,ENE,59,5.0,10.0,81,0.00,,,0.00,weatherlink.com 1.10,2013-08-29 17:03:00,
2013-08-29 13:18:00,76.9,70.0,29.97,NNE,24,7.0,8.0,78,0.00,,,0.00,weatherlink.com 1.10,2013-08-29 17:18:00,
2013-08-29 13:33:00,76.8,69.0,29.97,ENE,70,5.0,15.0,77,0.00,,,0.00,weatherlink.com 1.10,2013-08-29 17:33:00,
2013-08-29 13:48:00,77.7,70.0,29.98,NNE,30,7.0,12.0,76,0.00,,,0.00,weatherlink.com 1.10,2013-08-29 17:48:00,
2013-08-29 14:03:00,77.7,70.0,29.97,ENE,67,3.0,12.0,77,0.00,,,0.00,weatherlink.com 1.10,2013-08-29 18:03:00,
2013-08-29 14:18:00,78.2,68.0,29.97,NE,45,4.0,12.0,72,0.00,,,0.00,weatherlink.com 1.10,2013-08-29 18:18:00,
2013-08-29 14:33:00,78.5,69.0,29.97,ENE,67,4.0,12.0,72,0.00,,,0.00,weatherlink.com 1.10,2013-08-29 18:33:00,
2013-08-29 14:48:00,78.4,68.0,29.97,ENE,57,7.0,14.0,70,0.00,,,0.00,weatherlink.com 1.10,2013-08-29 18:48:00,
2013-08-29 15:03:00,78.9,68.0,29.97,NNE,29,4.0,11.0,70,0.00,,,0.00,weatherlink.com 1.10,2013-08-29 19:03:00,
2013-08-29 15:18:00,79.5,68.0,29.97,NE,40,4.0,11.0,69,0.00,,,0.00,weatherlink.com 1.10,2013-08-29 19:18:00,
2013-08-29 15:33:00,78.9,68.0,29.97,NE,53,7.0,13.0,69,0.00,,,0.00,weatherlink.com 1.10,2013-08-29 19:33:00,
2013-08-29 15:48:00,79.0,68.0,29.97,NNE,22,4.0,12.0,68,0.00,,,0.00,weatherlink.com 1.10,2013-08-29 19:48:00,
2013-08-29 16:03:00,79.2,69.0,29.97,NE,38,6.0,10.0,70,0.00,,,0.00,weatherlink.com 1.10,2013-08-29 20:03:00,
2013-08-29 16:19:00,80.2,70.0,29.96,East,87,5.0,9.0,70,0.00,,,0.00,weatherlink.com 1.10,2013-08-29 20:19:00,
2013-08-29 16:33:00,79.1,69.0,29.96,NE,56,4.0,9.0,72,0.00,,,0.00,weatherlink.com 1.10,2013-08-29 20:33:00,
2013-08-29 16:48:00,79.0,70.0,29.96,East,101,2.0,8.0,74,0.00,,,0.00,weatherlink.com 1.10,2013-08-29 20:48:00,
2013-08-29 17:03:00,78.3,70.0,29.96,East,91,9.0,10.0,75,0.00,,,0.00,weatherlink.com 1.10,2013-08-29 21:03:00,
2013-08-29 17:18:00,77.1,69.0,29.96,ENE,65,3.0,9.0,75,0.00,,,0.00,weatherlink.com 1.10,2013-08-29 21:18:00,
2013-08-29 17:33:00,77.2,70.0,29.97,East,91,6.0,8.0,77,0.00,,,0.00,weatherlink.com 1.10,2013-08-29 21:33:00,
2013-08-29 17:48:00,76.3,68.0,29.97,East,82,5.0,10.0,76,0.00,,,0.00,weatherlink.com 1.10,2013-08-29 21:48:00,
2013-08-29 18:03:00,75.5,68.0,29.97,ESE,108,5.0,11.0,77,0.00,,,0.00,weatherlink.com 1.10,2013-08-29 22:03:00,
2013-08-29 18:18:00,74.9,68.0,29.97,East,97,6.0,9.0,79,0.00,,,0.00,weatherlink.com 1.10,2013-08-29 22:18:00,
2013-08-29 18:33:00,74.4,68.0,29.97,East,91,5.0,6.0,80,0.00,,,0.00,weatherlink.com 1.10,2013-08-29 22:33:00,
2013-08-29 18:48:00,73.5,67.0,29.98,East,79,6.0,8.0,81,0.00,,,0.00,weatherlink.com 1.10,2013-08-29 22:48:00,
2013-08-29 19:03:00,72.6,67.0,29.98,ENE,75,1.0,6.0,83,0.00,,,0.00,weatherlink.com 1.10,2013-08-29 23:03:00,
2013-08-29 19:18:00,71.4,67.0,29.99,ENE,63,1.0,4.0,85,0.00,,,0.00,weatherlink.com 1.10,2013-08-29 23:18:00,
2013-08-29 19:33:00,70.5,66.0,29.99,ENE,78,2.0,4.0,86,0.00,,,0.00,weatherlink.com 1.10,2013-08-29 23:33:00,
2013-08-29 19:48:00,69.4,66.0,29.99,ENE,63,0.0,2.0,88,0.00,,,0.00,weatherlink.com 1.10,2013-08-29 23:48:00,
2013-08-29 20:03:00,68.2,66.0,30.00,ENE,62,0.0,0.0,91,0.00,,,0.00,weatherlink.com 1.10,2013-08-30 00:03:00,
2013-08-29 20:18:00,67.1,65.0,30.00,ENE,62,0.0,0.0,92,0.00,,,0.00,weatherlink.com 1.10,2013-08-30 00:18:00,
2013-08-29 20:33:00,65.9,64.0,30.00,ENE,63,0.0,0.0,92,0.00,,,0.00,weatherlink.com 1.10,2013-08-30 00:33:00,
2013-08-29 20:48:00,65.6,63.0,30.00,ENE,62,0.0,0.0,92,0.00,,,0.00,weatherlink.com 1.10,2013-08-30 00:48:00,
2013-08-29 21:03:00,65.0,63.0,30.01,ENE,63,0.0,0.0,92,0.00,,,0.00,weatherlink.com 1.10,2013-08-30 01:03:00,
2013-08-29 21:18:00,64.9,63.0,30.01,ENE,62,0.0,0.0,92,0.00,,,0.00,weatherlink.com 1.10,2013-08-30 01:18:00,
2013-08-29 21:33:00,64.3,62.0,30.00,ENE,62,0.0,0.0,92,0.00,,,0.00,weatherlink.com 1.10,2013-08-30 01:33:00,
2013-08-29 21:48:00,64.2,62.0,30.01,ENE,62,0.0,0.0,92,0.00,,,0.00,weatherlink.com 1.10,2013-08-30 01:48:00,
2013-08-29 22:03:00,62.8,61.0,30.02,ENE,63,0.0,0.0,92,0.00,,,0.00,weatherlink.com 1.10,2013-08-30 02:03:00,
2013-08-29 22:18:00,63.5,62.0,30.01,ENE,62,0.0,0.0,93,0.00,,,0.00,weatherlink.com 1.10,2013-08-30 02:18:00,
2013-08-29 22:33:00,63.4,61.0,30.01,ENE,62,0.0,0.0,93,0.00,,,0.00,weatherlink.com 1.10,2013-08-30 02:33:00,
2013-08-29 22:48:00,62.4,60.0,30.01,ENE,62,0.0,0.0,93,0.00,,,0.00,weatherlink.com 1.10,2013-08-30 02:48:00,
2013-08-29 23:04:00,62.6,61.0,30.02,ENE,62,0.0,0.0,93,0.00,,,0.00,weatherlink.com 1.10,2013-08-30 03:04:00,
2013-08-29 23:19:00,62.8,61.0,30.01,ENE,63,0.0,0.0,94,0.00,,,0.00,weatherlink.com 1.10,2013-08-30 03:19:00,
2013-08-29 23:34:00,62.7,61.0,30.01,ENE,62,0.0,0.0,93,0.00,,,0.00,weatherlink.com 1.10,2013-08-30 03:34:00,
2013-08-29 23:49:00,62.5,61.0,30.01,ENE,62,0.0,0.0,93,0.00,,,0.00,weatherlink.com 1.10,2013-08-30 03:49:00,